This is the latest recevied weather packets stored in our database for station/object N0EDB-13. If no packets are shown the sender has not sent any weather packets the latest 10 day(s).
| Time | Temp. | Humidity | Pressure | Rain* | Wind** | Luminosity | Snow |
|---|---|---|---|---|---|---|---|
| 1777678237 | 17.22° C | 21% | 1485.1 hPa | 0 mm | - | 390 W/m² | - |
| 1777677936 | 17.22° C | 21% | 1485.4 hPa | 0 mm | - | 320 W/m² | - |
| 1777677635 | 17.22° C | 20% | 1484.7 hPa | 0 mm | - | 136 W/m² | - |
| 1777677335 | 17.78° C | 20% | 1483.8 hPa | 0 mm | - | 400 W/m² | - |
| 1777677034 | 17.78° C | 20% | 1483 hPa | 0 mm | - | 181 W/m² | - |
| 1777676734 | 17.78° C | 20% | 1482.9 hPa | 0 mm | - | 430 W/m² | - |
| 1777676433 | 17.78° C | 19% | 1482.9 hPa | 0 mm | - | 328 W/m² | - |
| 1777676132 | 17.78° C | 18% | 1482.8 hPa | 0 mm | - | 162 W/m² | - |
| 1777675832 | 17.78° C | 19% | 1483.5 hPa | 0 mm | - | 419 W/m² | - |
| 1777675531 | 17.78° C | 20% | 1484.1 hPa | 0 mm | - | 150 W/m² | - |
| 1777675230 | 18.33° C | 19% | 1482.5 hPa | 0 mm | - | 181 W/m² | - |
| 1777674929 | 18.89° C | 19% | 1481.3 hPa | 0 mm | - | 606 W/m² | - |
| 1777674628 | 18.33° C | 19% | 1481.7 hPa | 0 mm | - | 625 W/m² | - |
| 1777674330 | 18.33° C | 19% | 1482.5 hPa | 0 mm | - | 654 W/m² | - |
| 1777674028 | 18.33° C | 19% | 1481.8 hPa | 0 mm | - | 145 W/m² | - |
| 1777673726 | 18.33° C | 18% | 1481.6 hPa | 0 mm | - | 398 W/m² | - |
| 1777673425 | 18.89° C | 18% | 1481.5 hPa | 0 mm | - | 679 W/m² | - |
| 1777673124 | 18.33° C | 20% | 1482.2 hPa | 0 mm | - | 704 W/m² | - |
| 1777672824 | 18.33° C | 19% | 1482.5 hPa | 0 mm | - | 706 W/m² | - |
| 1777672523 | 18.33° C | 20% | 1482.6 hPa | 0 mm | - | 728 W/m² | - |
| 1777672222 | 18.89° C | 20% | 1482 hPa | 0 mm | - | 717 W/m² | - |
| 1777671921 | 18.89° C | 19% | 1481.4 hPa | 0 mm | - | 753 W/m² | - |
| 1777671621 | 18.89° C | 20% | 1480.7 hPa | 0 mm | - | 763 W/m² | - |
| 1777671320 | 18.89° C | 19% | 1481.4 hPa | 0 mm | - | 782 W/m² | - |
| 1777671019 | 18.33° C | 19% | 1482.9 hPa | 0 mm | - | 796 W/m² | - |
* Rain latest hour (hover to see other rain measurements)
** Current wind speed in m/s (hover to see current wind gust speed)